QTR726 KORD-OTHH

Flight info

Callsign QTR726
Flight time N/A
Altitude 31000
Route RAYNR DCT BRTMN DCT TAAYZ DCT SQUIB DCT HAUCK DCT HRRSH DCT HOCKE DCT ROSVO DCT IGSAS DCT 5230N06000W/N0480F330 DCT LOMSI/M083F330 DCT 55N050W 56N040W 57N030W 57N020W DCT PIKIL DCT SOVED/N0476F350 DCT KUGUR DCT BELZU DCT MASOP DCT BELOX L603 DOLAS DCT NAVPI DCT OTMEC DCT TIVUN DCT ESAMA DCT OSBIT DCT BARSU DCT MOOCE DCT RUDNO DCT DEXIT DCT ARSIN DCT BABIT DCT OKLOP/N0470F370 DCT NISVA DCT RODIP DCT BELGI UT38 VESAR L620 BALMA UR655 CAK UN310 LATEB N310 BASEM R785 RASLI P559 TRF R23 NEVOL N318 TAMRO T503 LABIS L604 KFA M691 LADNA N318 HAYYA
Aircraft A346/H-SDE2E3FGHIJ3J4J5M1RWXY/LB1D1

Departure

Time N/A
Airport Chicago O'Hare International Airport (KORD)

Arrival

Time 2026-05-07 05:48
Airport Hamad International Airport (OTHH)
Time Latitude Longitude Altitude Speed Heading
2026-05-07 03:43 31.19157 39.09705 37081 ft 470 kts 158°
2026-05-07 03:43 31.16362 39.11690 37088 ft 470 kts 158°
2026-05-07 03:44 31.10772 39.15659 37083 ft 469 kts 158°
2026-05-07 03:44 31.05185 39.19619 37086 ft 469 kts 158°
2026-05-07 03:45 30.99594 39.23575 37088 ft 469 kts 158°
2026-05-07 03:45 30.94042 39.27498 37090 ft 469 kts 158°
2026-05-07 03:46 30.88452 39.31443 37067 ft 469 kts 158°
2026-05-07 03:46 30.82859 39.35385 37063 ft 469 kts 158°
2026-05-07 03:47 30.77269 39.39319 37086 ft 469 kts 158°
2026-05-07 03:47 30.71677 39.43247 37087 ft 469 kts 158°
2026-05-07 03:48 30.66123 39.47143 37091 ft 469 kts 158°
2026-05-07 03:48 30.60525 39.51064 37095 ft 469 kts 158°
2026-05-07 03:49 30.54923 39.54980 37092 ft 469 kts 158°
2026-05-07 03:49 30.49331 39.58925 37091 ft 472 kts 156°
2026-05-07 03:50 30.43969 39.63473 37094 ft 482 kts 149°
2026-05-07 03:50 30.39018 39.68812 37098 ft 491 kts 142°
2026-05-07 03:51 30.34569 39.74923 37096 ft 500 kts 136°
2026-05-07 03:51 30.30418 39.81386 37078 ft 500 kts 135°
2026-05-07 03:52 30.26261 39.87864 37096 ft 501 kts 135°
2026-05-07 03:52 30.22088 39.94339 37084 ft 502 kts 135°
2026-05-07 03:53 30.17936 40.00762 37097 ft 502 kts 136°
2026-05-07 03:53 30.13743 40.07236 37094 ft 503 kts 136°
2026-05-07 03:54 30.09530 40.13728 37101 ft 504 kts 136°
2026-05-07 03:54 30.05316 40.20207 37104 ft 504 kts 136°
2026-05-07 03:55 30.01099 40.26684 37085 ft 504 kts 136°
2026-05-07 03:55 29.96909 40.33128 37093 ft 505 kts 136°
2026-05-07 03:56 29.92657 40.39652 37098 ft 505 kts 136°
2026-05-07 03:56 29.88425 40.46126 37096 ft 505 kts 136°
2026-05-07 03:57 29.84204 40.52569 37088 ft 505 kts 136°
2026-05-07 03:57 29.79954 40.59043 37091 ft 505 kts 136°
2026-05-07 03:58 29.75832 40.65643 37096 ft 511 kts 131°
2026-05-07 03:58 29.72061 40.72625 37078 ft 513 kts 130°
2026-05-07 03:59 29.68314 40.79617 37088 ft 512 kts 130°
2026-05-07 03:59 29.64575 40.86559 37090 ft 512 kts 131°
2026-05-07 04:00 29.60813 40.93523 37072 ft 512 kts 131°
2026-05-07 04:00 29.57041 41.00490 37089 ft 513 kts 131°
2026-05-07 04:01 29.53266 41.07446 37091 ft 512 kts 131°
2026-05-07 04:01 29.49483 41.14405 37072 ft 512 kts 131°
2026-05-07 04:02 29.45703 41.21349 37083 ft 512 kts 131°
2026-05-07 04:02 29.41918 41.28285 37082 ft 512 kts 131°
2026-05-07 04:03 29.38127 41.35217 37055 ft 512 kts 131°
2026-05-07 04:03 29.34371 41.42091 37077 ft 511 kts 131°
2026-05-07 04:04 29.30574 41.49044 37072 ft 511 kts 131°
2026-05-07 04:04 29.26813 41.55906 37081 ft 511 kts 131°
2026-05-07 04:05 29.23024 41.62800 37068 ft 511 kts 131°
2026-05-07 04:05 29.19229 41.69696 37070 ft 511 kts 131°
2026-05-07 04:06 29.16069 41.75426 37076 ft 511 kts 131°
2026-05-07 04:06 29.12261 41.82314 37065 ft 512 kts 131°
2026-05-07 04:07 29.08446 41.89205 37065 ft 512 kts 131°
2026-05-07 04:07 29.04626 41.96104 37067 ft 512 kts 131°
2026-05-07 04:08 29.00808 42.02997 37054 ft 514 kts 131°
2026-05-07 04:08 28.96964 42.09917 37062 ft 516 kts 131°
2026-05-07 04:09 28.93140 42.16791 37062 ft 516 kts 131°
2026-05-07 04:09 28.89253 42.23757 37047 ft 516 kts 131°
2026-05-07 04:10 28.85412 42.30630 37057 ft 516 kts 131°
2026-05-07 04:10 28.81539 42.37547 37058 ft 516 kts 131°
2026-05-07 04:11 28.77665 42.44452 37047 ft 516 kts 131°
2026-05-07 04:11 28.73787 42.51351 37056 ft 516 kts 131°
2026-05-07 04:12 28.69929 42.58200 37056 ft 516 kts 131°
2026-05-07 04:12 28.65987 42.65010 37046 ft 512 kts 135°
2026-05-07 04:13 28.61556 42.71272 37054 ft 503 kts 141°
2026-05-07 04:13 28.56704 42.76960 37055 ft 499 kts 144°
2026-05-07 04:14 28.51812 42.82573 37053 ft 499 kts 144°
2026-05-07 04:14 28.46918 42.88192 37050 ft 499 kts 144°
2026-05-07 04:15 28.42031 42.93803 37048 ft 500 kts 144°
2026-05-07 04:15 28.37147 42.99409 37046 ft 500 kts 144°
2026-05-07 04:16 28.32246 43.05026 37038 ft 500 kts 144°
2026-05-07 04:16 28.27345 43.10637 37046 ft 499 kts 144°
2026-05-07 04:17 28.22445 43.16238 37048 ft 499 kts 144°
2026-05-07 04:17 28.17548 43.21828 37045 ft 499 kts 144°
2026-05-07 04:18 28.12653 43.27408 37029 ft 497 kts 144°
2026-05-07 04:18 28.07802 43.32931 37037 ft 497 kts 144°
2026-05-07 04:19 28.02924 43.38475 37037 ft 496 kts 144°
2026-05-07 04:19 27.98055 43.44002 37017 ft 496 kts 144°
2026-05-07 04:20 27.93177 43.49532 37039 ft 496 kts 144°
2026-05-07 04:20 27.88300 43.55055 37036 ft 496 kts 144°
2026-05-07 04:21 27.80973 43.63335 37021 ft 496 kts 144°
2026-05-07 04:21 27.76090 43.68846 37027 ft 496 kts 144°
2026-05-07 04:22 27.71207 43.74348 37034 ft 495 kts 144°
2026-05-07 04:22 27.66354 43.79809 37033 ft 495 kts 144°
2026-05-07 04:23 27.61464 43.85305 37019 ft 495 kts 144°
2026-05-07 04:23 27.56574 43.90793 37024 ft 495 kts 144°
2026-05-07 04:24 27.51678 43.96280 37025 ft 495 kts 144°
2026-05-07 04:24 27.46791 44.01750 37025 ft 495 kts 144°
2026-05-07 04:25 27.41884 44.07235 37014 ft 497 kts 144°
2026-05-07 04:25 27.36970 44.12720 37021 ft 497 kts 144°
2026-05-07 04:26 27.32086 44.18166 37010 ft 497 kts 144°
2026-05-07 04:26 27.27164 44.23647 37001 ft 498 kts 144°
2026-05-07 04:27 27.22219 44.29144 37011 ft 500 kts 144°
2026-05-07 04:27 27.17268 44.34643 37011 ft 500 kts 144°
2026-05-07 04:28 27.12339 44.40109 37010 ft 500 kts 144°
2026-05-07 04:28 27.07386 44.45596 37002 ft 501 kts 144°
2026-05-07 04:29 27.02418 44.51090 37004 ft 501 kts 144°
2026-05-07 04:29 26.97451 44.56577 37006 ft 501 kts 145°
2026-05-07 04:30 26.92470 44.62072 36987 ft 501 kts 145°
2026-05-07 04:30 26.87484 44.67565 37000 ft 503 kts 145°
2026-05-07 04:31 26.82489 44.73059 37009 ft 503 kts 145°
2026-05-07 04:31 26.77511 44.78530 37009 ft 503 kts 145°
2026-05-07 04:32 26.72508 44.84019 37009 ft 503 kts 145°
2026-05-07 04:32 26.67501 44.89507 37009 ft 503 kts 145°
2026-05-07 04:33 26.62496 44.94983 37009 ft 503 kts 145°
2026-05-07 04:33 26.57496 45.00448 36983 ft 503 kts 145°
2026-05-07 04:34 26.52470 45.05929 36995 ft 506 kts 145°
2026-05-07 04:34 26.47454 45.11394 37009 ft 507 kts 145°
2026-05-07 04:35 26.42397 45.16895 37009 ft 507 kts 145°
2026-05-07 04:35 26.37373 45.22442 36988 ft 512 kts 141°
2026-05-07 04:36 26.35136 45.25592 37001 ft 523 kts 133°
2026-05-07 04:36 26.33257 45.29106 37005 ft 533 kts 124°
2026-05-07 04:36 26.30791 45.37040 37010 ft 551 kts 107°
2026-05-07 04:37 26.30231 45.45659 37018 ft 560 kts 94°
2026-05-07 04:37 26.30306 45.54309 37014 ft 560 kts 94°
2026-05-07 04:38 26.30350 45.63004 37018 ft 560 kts 94°
2026-05-07 04:38 26.30334 45.71708 37018 ft 560 kts 95°
2026-05-07 04:39 26.30295 45.80385 37015 ft 560 kts 95°
2026-05-07 04:39 26.30248 45.89072 37027 ft 560 kts 95°
2026-05-07 04:40 26.30198 45.97764 37023 ft 560 kts 95°
2026-05-07 04:40 26.30141 46.06456 37009 ft 560 kts 95°
2026-05-07 04:41 26.30078 46.15152 37016 ft 560 kts 95°
2026-05-07 04:41 26.30009 46.23790 37020 ft 560 kts 95°
2026-05-07 04:42 26.29939 46.32480 37034 ft 560 kts 95°
2026-05-07 04:42 26.29867 46.41165 37033 ft 559 kts 95°
2026-05-07 04:43 26.29783 46.49843 37029 ft 559 kts 95°
2026-05-07 04:43 26.29704 46.58527 37024 ft 559 kts 95°
2026-05-07 04:44 26.29617 46.67204 37027 ft 559 kts 95°
2026-05-07 04:44 26.29520 46.75868 37034 ft 559 kts 95°
2026-05-07 04:45 26.29416 46.84503 37038 ft 559 kts 95°
2026-05-07 04:45 26.29306 46.93187 37040 ft 559 kts 95°
2026-05-07 04:46 26.29190 47.01866 37038 ft 558 kts 95°
2026-05-07 04:46 26.29066 47.10533 37042 ft 558 kts 95°
2026-05-07 04:47 26.28937 47.19204 37044 ft 558 kts 95°
2026-05-07 04:47 26.28801 47.27873 37044 ft 558 kts 95°
2026-05-07 04:48 26.28648 47.36484 37040 ft 558 kts 95°
2026-05-07 04:48 26.28485 47.45130 37029 ft 557 kts 95°
2026-05-07 04:49 26.28313 47.53775 37032 ft 557 kts 95°
2026-05-07 04:49 26.28160 47.62412 37036 ft 557 kts 94°
2026-05-07 04:50 26.28623 47.71071 37032 ft 561 kts 86°
2026-05-07 04:50 26.30022 47.79653 37023 ft 563 kts 79°
2026-05-07 04:51 26.31808 47.88145 37017 ft 562 kts 79°
2026-05-07 04:51 26.33569 47.96631 37010 ft 559 kts 79°
2026-05-07 04:52 26.35284 48.05093 37005 ft 559 kts 79°
2026-05-07 04:52 26.36715 48.12137 37000 ft 559 kts 79°
2026-05-07 04:53 26.38709 48.21978 36996 ft 559 kts 79°
2026-05-07 04:53 26.40412 48.30446 36984 ft 558 kts 79°
2026-05-07 04:54 26.41833 48.37536 36985 ft 558 kts 80°
2026-05-07 04:54 26.43522 48.46000 36984 ft 558 kts 80°
2026-05-07 04:55 26.45195 48.54420 36971 ft 558 kts 80°
2026-05-07 04:55 26.46821 48.62897 36964 ft 557 kts 83°
2026-05-07 04:56 26.47747 48.71459 36955 ft 553 kts 90°
2026-05-07 04:56 26.47979 48.80040 36951 ft 551 kts 93°
2026-05-07 04:57 26.48126 48.88629 36940 ft 551 kts 93°
2026-05-07 04:57 26.48294 48.97204 36933 ft 551 kts 92°
2026-05-07 04:58 26.48470 49.05777 36922 ft 551 kts 92°
2026-05-07 04:58 26.48645 49.14344 36923 ft 551 kts 92°
2026-05-07 04:59 26.48817 49.22856 36924 ft 551 kts 92°
2026-05-07 04:59 26.48983 49.31406 36917 ft 551 kts 92°
2026-05-07 05:00 26.49143 49.39973 36910 ft 551 kts 92°
2026-05-07 05:00 26.49297 49.48552 36898 ft 551 kts 92°
2026-05-07 05:01 26.49444 49.57123 36889 ft 552 kts 92°
2026-05-07 05:01 26.49586 49.65718 36882 ft 552 kts 92°
2026-05-07 05:02 26.49723 49.74310 36848 ft 552 kts 92°
2026-05-07 05:02 26.49548 49.82879 36871 ft 550 kts 97°
2026-05-07 05:03 26.49075 49.91441 36875 ft 550 kts 97°
2026-05-07 05:03 26.48582 49.99968 36864 ft 550 kts 97°
2026-05-07 05:04 26.48095 50.08499 36855 ft 550 kts 97°
2026-05-07 05:04 26.47611 50.16995 36869 ft 550 kts 97°
2026-05-07 05:05 26.47116 50.25557 36867 ft 552 kts 97°
2026-05-07 05:05 26.46501 50.34109 36844 ft 550 kts 101°
2026-05-07 05:06 26.45120 50.42407 36880 ft 543 kts 109°
2026-05-07 05:06 26.42955 50.50464 36886 ft 541 kts 113°
2026-05-07 05:07 26.40646 50.58469 36885 ft 541 kts 113°
2026-05-07 05:07 26.38376 50.66489 36869 ft 541 kts 112°
2026-05-07 05:08 26.36103 50.74497 36852 ft 540 kts 112°
2026-05-07 05:08 26.33830 50.82475 36873 ft 538 kts 112°
2026-05-07 05:09 26.31510 50.90435 36875 ft 535 kts 115°
2026-05-07 05:09 26.28630 50.98027 36880 ft 528 kts 122°
2026-05-07 05:10 26.25114 51.05180 36879 ft 525 kts 126°
2026-05-07 05:10 26.21516 51.12262 36875 ft 525 kts 125°
2026-05-07 05:11 26.17944 51.19354 36877 ft 524 kts 125°
2026-05-07 05:11 26.14395 51.26395 36875 ft 524 kts 125°
2026-05-07 05:12 26.10793 51.33521 36879 ft 524 kts 125°
2026-05-07 05:12 26.07234 51.40549 36862 ft 523 kts 125°
2026-05-07 05:13 26.03663 51.47615 36869 ft 523 kts 125°
2026-05-07 05:13 26.00086 51.54675 36870 ft 523 kts 125°
2026-05-07 05:14 25.96495 51.61735 36871 ft 523 kts 125°
2026-05-07 05:14 25.92895 51.68796 36852 ft 523 kts 124°
2026-05-07 05:15 25.89325 51.75855 36876 ft 523 kts 124°
2026-05-07 05:15 25.85855 51.82988 36863 ft 523 kts 123°
2026-05-07 05:16 25.82529 51.90199 36688 ft 526 kts 120°
2026-05-07 05:16 25.80982 51.93875 36327 ft 524 kts 120°
2026-05-07 05:16 25.79448 51.97544 35814 ft 523 kts 120°
2026-05-07 05:17 25.77911 52.01215 35193 ft 524 kts 120°
2026-05-07 05:17 25.76368 52.04886 34564 ft 525 kts 120°
2026-05-07 05:17 25.74821 52.08564 33927 ft 526 kts 120°
2026-05-07 05:17 25.73291 52.12191 33219 ft 527 kts 120°
2026-05-07 05:18 25.71732 52.15878 32522 ft 527 kts 120°
2026-05-07 05:18 25.70175 52.19562 31849 ft 527 kts 120°
2026-05-07 05:18 25.68619 52.23248 31174 ft 527 kts 119°
2026-05-07 05:18 25.67059 52.26936 30484 ft 527 kts 119°
2026-05-07 05:19 25.65497 52.30622 29752 ft 528 kts 119°
2026-05-07 05:19 25.63932 52.34304 28944 ft 528 kts 119°
2026-05-07 05:19 25.62363 52.37974 28209 ft 525 kts 119°
2026-05-07 05:19 25.60683 52.41525 27977 ft 511 kts 122°
2026-05-07 05:20 25.58988 52.44924 27878 ft 496 kts 122°
2026-05-07 05:20 25.57332 52.48210 27773 ft 481 kts 123°
2026-05-07 05:20 25.55723 52.51389 27696 ft 466 kts 123°
2026-05-07 05:20 25.54160 52.54474 27589 ft 451 kts 123°
2026-05-07 05:21 25.52649 52.57458 27487 ft 437 kts 123°
2026-05-07 05:21 25.49235 52.62663 27169 ft 399 kts 151°
2026-05-07 05:21 25.46802 52.63850 27048 ft 372 kts 174°
2026-05-07 05:22 25.44278 52.63921 26657 ft 358 kts 194°
2026-05-07 05:22 25.41954 52.63056 26265 ft 349 kts 211°
2026-05-07 05:22 25.39860 52.61733 25908 ft 345 kts 212°
2026-05-07 05:22 25.37785 52.60403 25554 ft 342 kts 212°
2026-05-07 05:23 25.35736 52.59066 25170 ft 339 kts 218°
2026-05-07 05:23 25.34123 52.57246 24799 ft 335 kts 238°
2026-05-07 05:23 25.33178 52.54887 24417 ft 334 kts 257°
2026-05-07 05:23 25.33014 52.52328 24047 ft 335 kts 276°
2026-05-07 05:24 25.33650 52.49852 23665 ft 338 kts 295°
2026-05-07 05:24 25.34771 52.47562 23292 ft 338 kts 298°
2026-05-07 05:24 25.35931 52.45300 22900 ft 337 kts 298°
2026-05-07 05:24 25.37084 52.43045 22555 ft 335 kts 298°
2026-05-07 05:25 25.38224 52.40794 22196 ft 333 kts 297°
2026-05-07 05:25 25.39349 52.38558 21875 ft 331 kts 297°
2026-05-07 05:25 25.40466 52.36332 21545 ft 329 kts 297°
2026-05-07 05:25 25.41573 52.34123 21223 ft 327 kts 297°
2026-05-07 05:26 25.42675 52.31924 20891 ft 326 kts 297°
2026-05-07 05:26 25.43774 52.29729 20579 ft 324 kts 297°
2026-05-07 05:26 25.44868 52.27537 20239 ft 323 kts 297°
2026-05-07 05:26 25.45954 52.25363 19922 ft 322 kts 297°
2026-05-07 05:27 25.47038 52.23193 19599 ft 321 kts 297°
2026-05-07 05:27 25.48114 52.21041 19267 ft 321 kts 297°
2026-05-07 05:27 25.49194 52.18881 18950 ft 320 kts 297°
2026-05-07 05:27 25.50281 52.16706 18632 ft 320 kts 297°
2026-05-07 05:28 25.51356 52.14551 18290 ft 319 kts 297°
2026-05-07 05:28 25.52429 52.12399 17935 ft 319 kts 297°
2026-05-07 05:28 25.53489 52.10271 17590 ft 318 kts 297°
2026-05-07 05:28 25.54557 52.08128 17256 ft 317 kts 297°
2026-05-07 05:29 25.55622 52.05993 16931 ft 315 kts 297°
2026-05-07 05:29 25.56679 52.03866 16605 ft 314 kts 298°
2026-05-07 05:29 25.57733 52.01749 16272 ft 314 kts 298°
2026-05-07 05:29 25.58784 51.99635 15940 ft 313 kts 298°
2026-05-07 05:30 25.59834 51.97520 15599 ft 313 kts 297°
2026-05-07 05:30 25.60523 51.95252 15216 ft 311 kts 272°
2026-05-07 05:30 25.60254 51.92892 14859 ft 307 kts 246°
2026-05-07 05:30 25.59131 51.90920 14544 ft 302 kts 223°
2026-05-07 05:31 25.57551 51.89389 14217 ft 301 kts 218°
2026-05-07 05:31 25.56486 51.88408 14004 ft 301 kts 218°
2026-05-07 05:31 25.54330 51.86403 13569 ft 301 kts 218°
2026-05-07 05:31 25.52735 51.84900 13207 ft 300 kts 219°
2026-05-07 05:32 25.51161 51.83405 13053 ft 294 kts 219°
2026-05-07 05:32 25.49590 51.81971 13049 ft 291 kts 215°
2026-05-07 05:32 25.47932 51.80705 12988 ft 287 kts 210°
2026-05-07 05:32 25.46204 51.79579 12465 ft 292 kts 208°
2026-05-07 05:33 25.44398 51.78447 11803 ft 303 kts 208°
2026-05-07 05:33 25.42555 51.77293 11374 ft 304 kts 208°
2026-05-07 05:33 25.40717 51.76135 11004 ft 304 kts 208°
2026-05-07 05:33 25.38879 51.74978 10636 ft 303 kts 208°
2026-05-07 05:34 25.37053 51.73825 10263 ft 303 kts 208°
2026-05-07 05:34 25.35217 51.72670 9889 ft 303 kts 208°
2026-05-07 05:34 25.33388 51.71521 9545 ft 301 kts 208°
2026-05-07 05:34 25.31515 51.70577 9119 ft 300 kts 190°
2026-05-07 05:35 25.29467 51.70708 8721 ft 295 kts 160°
2026-05-07 05:35 25.27591 51.71566 8453 ft 291 kts 155°
2026-05-07 05:35 25.25733 51.72460 8048 ft 291 kts 155°
2026-05-07 05:35 25.23863 51.73327 7661 ft 291 kts 156°
2026-05-07 05:36 25.21991 51.74173 7293 ft 291 kts 156°
2026-05-07 05:36 25.20749 51.74727 7060 ft 289 kts 156°
2026-05-07 05:36 25.18883 51.75550 6718 ft 288 kts 156°
2026-05-07 05:36 25.17026 51.76366 6376 ft 287 kts 157°
2026-05-07 05:37 25.15172 51.77179 6030 ft 285 kts 157°
2026-05-07 05:37 25.13329 51.77986 5688 ft 284 kts 157°
2026-05-07 05:37 25.11495 51.78789 5331 ft 283 kts 156°
2026-05-07 05:37 25.09673 51.79587 5050 ft 279 kts 156°
2026-05-07 05:38 25.07882 51.80371 4806 ft 274 kts 156°
2026-05-07 05:38 25.06128 51.81138 4565 ft 268 kts 156°
2026-05-07 05:38 25.04396 51.81889 4319 ft 263 kts 157°
2026-05-07 05:38 25.02706 51.82618 4069 ft 259 kts 157°
2026-05-07 05:39 25.01019 51.83285 3825 ft 263 kts 168°
2026-05-07 05:39 24.99159 51.83241 3579 ft 280 kts 195°
2026-05-07 05:39 24.97444 51.82230 3317 ft 280 kts 223°
2026-05-07 05:39 24.96262 51.80552 3064 ft 274 kts 239°
2026-05-07 05:40 24.95402 51.78704 2787 ft 269 kts 249°
2026-05-07 05:40 24.94745 51.76787 2589 ft 263 kts 252°
2026-05-07 05:40 24.94384 51.74866 2530 ft 249 kts 276°
2026-05-07 05:40 24.94873 51.73140 2538 ft 229 kts 309°
2026-05-07 05:41 24.96060 51.72061 2585 ft 220 kts 341°
2026-05-07 05:41 24.97541 51.71875 2583 ft 215 kts
2026-05-07 05:41 24.99022 51.72113 2577 ft 216 kts 11°
2026-05-07 05:41 25.00508 51.72353 2577 ft 216 kts
2026-05-07 05:42 25.02009 51.72387 2562 ft 216 kts
2026-05-07 05:42 25.03507 51.72199 2549 ft 217 kts 351°
2026-05-07 05:42 25.04932 51.71752 2538 ft 206 kts 344°
2026-05-07 05:42 25.06218 51.71225 2518 ft 189 kts 342°
2026-05-07 05:43 25.07433 51.70694 2529 ft 187 kts 341°
2026-05-07 05:43 25.08639 51.70161 2537 ft 187 kts 341°
2026-05-07 05:43 25.09845 51.69627 2542 ft 187 kts 341°
2026-05-07 05:43 25.11050 51.69093 2547 ft 187 kts 341°
2026-05-07 05:44 25.12241 51.68566 2546 ft 187 kts 341°
2026-05-07 05:44 25.13448 51.68032 2412 ft 187 kts 341°
2026-05-07 05:44 25.14651 51.67499 2185 ft 186 kts 341°
2026-05-07 05:44 25.15826 51.66978 1940 ft 177 kts 341°
2026-05-07 05:45 25.16925 51.66490 1714 ft 163 kts 341°
2026-05-07 05:45 25.17956 51.66033 1529 ft 158 kts 341°
2026-05-07 05:45 25.18972 51.65585 1332 ft 157 kts 341°
2026-05-07 05:45 25.19984 51.65139 1136 ft 156 kts 341°
2026-05-07 05:46 25.20996 51.64693 950 ft 156 kts 340°
2026-05-07 05:46 25.21997 51.64238 783 ft 155 kts 339°
2026-05-07 05:46 25.22996 51.63792 629 ft 155 kts 339°
2026-05-07 05:46 25.23994 51.63347 462 ft 155 kts 339°
2026-05-07 05:47 25.24991 51.62907 221 ft 154 kts 340°
2026-05-07 05:47 25.25987 51.62487 45 ft 149 kts 334°
2026-05-07 05:47 25.26797 51.62126 32 ft 91 kts 339°
2026-05-07 05:47 25.27227 51.61939 35 ft 52 kts 338°
2026-05-07 05:48 25.27503 51.61818 36 ft 30 kts 338°
2026-05-07 05:48 25.27596 51.61729 35 ft 14 kts 280°
2026-05-07 05:48 25.27579 51.61636 36 ft 13 kts 248°
2026-05-07 05:48 25.27551 51.61560 37 ft 11 kts 247°
2026-05-07 05:49 25.27514 51.61518 37 ft 8 kts 193°
2026-05-07 05:49 25.27446 51.61531 38 ft 10 kts 162°
2026-05-07 05:49 25.27405 51.61548 38 ft 9 kts 158°
2026-05-07 05:49 25.27300 51.61596 38 ft 20 kts 157°
2026-05-07 05:50 25.27189 51.61647 38 ft 23 kts 157°
2026-05-07 05:50 25.27126 51.61676 38 ft 8 kts 158°
2026-05-07 05:50 25.27078 51.61666 38 ft 8 kts 227°
2026-05-07 05:50 25.27070 51.61647 38 ft 4 kts 262°
2026-05-07 05:51 25.27086 51.61614 38 ft 6 kts 315°
2026-05-07 05:51 25.27114 51.61584 38 ft 6 kts 315°
2026-05-07 05:51 25.27134 51.61561 38 ft 3 kts 313°
2026-05-07 05:51 25.27137 51.61558 38 ft 0 kts 313°